[[{"header":{"parameterUnit":"m.s-1","parameterCategory":1,"la1":30.2991,"la2":30.254,"lo1":-89.0895,"lo2":-89.0444,"dy":0.0017,"dx":0.0017,"nx":28,"ny":28,"refTime":"2023-08-10T09:00:00:Z","depth":0,"parameterNumber":2,"parameterNumberName":"U-component_of_WINDS"},"data":[0,0,0,0,0,0,0,0,0,0,0,0,0,0,0,0,0,0,0,0,0,0,0,0,0,0,0,0,0,0,0,0,0,0,0,0,0,0,0,0,0,0,0,0,0,0,0,0,0,0,0,0,0,0,0,0,0,0,5.2073,5.2075,0,5.2228,5.223,5.2231,5.2203,5.22,5.2197,5.2195,5.2352,5.2359,5.2365,0,0,0,0,0,0,0,0,0,0,0,0,0,5.1748,5.1754,5.2073,5.2075,5.2077,5.2228,5.223,5.2232,5.2203,5.22,5.2197,5.2193,5.235,5.2358,5.2366,0,0,0,0,0,0,0,0,0,0,0,0,0,5.1895,5.1756,5.2073,5.2081,5.2083,5.2227,5.223,5.2232,5.2204,5.22,5.2196,5.2192,5.2347,5.2357,5.2367,5.2512,0,0,5.2398,5.2402,0,0,0,0,0,0,0,0,5.1887,5.1907,5.2078,5.208,5.2083,5.2192,5.2173,5.2326,5.2205,5.2158,5.2195,5.219,5.2302,5.2316,5.2354,5.252,5.2526,5.2399,5.2405,5.2409,5.2412,0,0,0,0,0,0,0,5.1876,5.19,5.2134,5.208,5.2084,5.2075,5.2092,5.2202,5.2251,5.2162,5.216,5.2179,5.2303,5.2344,5.2357,5.2529,5.2399,5.2408,5.2414,5.2418,5.2816,5.282,0,0,0,0,0,0,5.1864,5.1892,5.2129,5.2139,5.1973,5.2084,5.2103,5.2161,5.225,5.226,5.2182,5.2177,5.2329,5.2345,5.2362,5.2534,5.2409,5.2419,5.2425,5.2811,5.2817,5.2821,0,0,0,0,0,0,5.1857,5.1886,5.2123,5.2015,5.2044,5.2094,5.216,5.2166,5.2207,5.2265,5.2274,5.2216,5.2326,5.2348,5.2474,5.2539,5.2423,5.2433,5.2806,5.2813,5.2819,5.2881,0,0,0,0,0,0,5.1848,5.1883,5.194,5.2016,5.205,5.2233,5.2165,5.2172,5.2225,5.222,5.2299,5.2308,5.2324,5.2459,5.2484,5.2551,5.244,5.28,5.2809,5.2817,5.2873,5.2889,5.2902,0,0,0,0,0,5.1837,5.1952,5.1943,5.1972,5.2123,5.2237,5.2256,5.2273,5.2231,5.2287,5.2323,5.2305,5.2529,5.2472,5.25,5.2571,5.2796,5.2806,5.2816,5.2867,5.2886,5.2902,0,0,0,0,0,0,5.1883,5.1963,5.1953,5.2098,5.2161,5.2232,5.2304,5.2294,5.237,5.2362,5.238,5.2398,5.2524,5.2561,5.2496,5.2713,5.2656,5.2672,5.2685,5.2703,5.2718,5.2705,5.2449,0,0,0,0,0,5.191,5.1997,5.2062,5.2183,5.2215,5.2254,5.2305,5.2312,5.2378,5.2404,5.2451,5.2514,5.2598,5.2653,5.2735,5.2879,5.2893,5.2941,5.2956,5.2968,5.298,5.3054,5.3075,5.2855,5.2855,5.2854,0,0,5.1967,5.2021,5.2075,5.2193,5.2243,5.2331,5.2277,5.2373,5.2438,5.2419,5.2539,5.2575,5.2648,5.2782,5.2843,5.2816,5.3045,5.298,5.2989,5.2996,5.3067,5.3088,5.3106,5.2861,5.286,5.2859,0,0,5.2114,5.2166,5.2269,5.232,5.2395,5.242,5.2445,5.2518,5.254,5.2662,5.2648,5.2725,5.2871,5.2921,5.2966,5.3128,5.3113,5.3155,5.3229,5.3301,5.3319,5.3334,5.3388,5.3407,5.3168,5.3168,5.3168,0,5.2174,5.2307,5.2324,5.2421,5.2471,5.2458,5.2561,5.2609,5.2708,5.2742,5.271,5.289,5.2938,5.3081,5.312,5.3159,5.3185,5.3144,5.3315,5.3331,5.3345,5.3396,5.3417,5.3172,5.3172,5.3171,5.3171,0,5.2375,5.2467,5.2542,5.2636,5.2695,5.2795,5.2825,5.2883,5.2884,5.2911,5.3032,5.309,5.3179,5.3215,5.3219,5.3358,5.3338,5.3311,5.3253,5.337,5.3418,5.3438,5.3178,5.3177,5.3175,5.3174,0,0,5.2556,5.2656,5.2683,5.2723,5.2804,5.2875,5.2972,5.306,5.3107,5.3175,5.3255,5.3377,5.3351,5.3402,5.341,5.3474,5.3593,5.3439,5.344,5.3462,5.3745,5.3762,5.3784,5.3585,5.3589,5.3592,5.3737,0,5.2707,5.288,5.2896,5.305,5.3132,5.312,5.3204,5.3262,5.3289,5.3362,5.3393,5.3477,5.3439,5.3469,5.3532,5.3566,5.365,5.3556,5.3656,5.3659,5.3634,5.381,5.383,5.3964,5.3757,5.376,5.3762,0,5.2907,5.2979,5.314,5.3205,5.3241,5.3317,5.3395,5.3467,5.3531,5.3546,5.3601,5.36,5.3698,5.3638,5.3771,5.3706,5.3748,5.3771,5.3776,5.3784,5.3715,5.3818,5.4008,5.4027,5.3793,5.3791,5.3788,0,5.3016,5.3154,5.3267,5.3303,5.3383,5.3436,5.3472,5.3532,5.3582,5.3651,5.3683,5.3763,5.3806,5.3867,5.3887,5.3842,5.4017,5.396,5.4029,5.4029,5.4064,5.4061,5.4259,5.4098,5.4098,5.4098,5.4097,0,5.3181,5.328,5.3316,5.3386,5.3494,5.3511,5.3618,5.3651,5.3703,5.3777,5.3772,5.3841,5.3865,5.3937,5.3954,5.4058,5.4079,5.4091,5.4094,5.409,5.4087,5.4115,5.4104,5.4103,5.4102,5.4101,5.41,0,5.3321,5.3351,5.3472,5.3538,5.3556,5.3633,5.3688,5.3753,5.3779,5.3872,5.3894,5.3935,5.4019,5.4046,5.4148,5.4159,5.4279,5.4276,5.4257,5.4257,5.4323,5.4314,5.4543,5.4571,5.4395,5.4397,5.4398,0,5.3423,5.3497,5.357,5.3619,5.3656,5.3736,5.3786,5.3805,5.3857,5.3934,5.3989,5.4072,5.414,5.4275,5.4312,5.4389,5.4385,5.4459,5.4396,5.4388,5.438,5.4374,5.4379,5.447,5.4472,5.4473,5.4475,0,5.3598,5.3608,5.3681,5.3758,5.3818,5.388,5.394,5.398,5.4007,5.4066,5.4152,5.4204,5.4307,5.4388,5.4466,5.4501,5.4491,5.4494,5.4514,5.4508,5.4492,5.4497,5.4285,5.4488,5.4487,5.4486,5.4485,5.4485,5.3719,5.3783,5.3842,5.3923,5.3969,5.4024,5.4087,5.412,5.4192,5.4277,5.4284,5.4376,5.4434,5.4537,5.4576,5.4646,5.4625,5.4654,5.466,5.4666,5.4669,5.4484,5.4661,5.4661,5.466,5.466,5.466,0,5.3889,5.3927,5.4001,5.4083,5.4145,5.4132,5.4196,5.4248,5.4329,5.4384,5.445,5.4546,5.4624,5.4667,5.4744,5.4792,5.4789,5.4811,5.4806,5.4813,5.4687,5.466,5.4812,5.4812,5.4812,5.4812,5.4812,5.4812,5.3985,5.4091,5.4108,5.4235,5.4272,5.4361,5.4398,5.4447,5.4491,5.4599,5.4663,5.4691,5.474,5.482,5.489,5.49,5.4927,5.4951,5.4958,5.4838,5.4823,5.4808,5.4782,5.4958,5.4958,5.5078,5.508,5.508]},{"header":{"parameterUnit":"m.s-1","parameterCategory":1,"la1":30.2991,"la2":30.254,"lo1":-89.0895,"lo2":-89.0444,"dy":0.0017,"dx":0.0017,"nx":28,"ny":28,"refTime":"2023-08-10T09:00:00:Z","depth":0,"parameterNumber":3,"parameterNumberName":"V-component_of_WINDS"},"data":[0,0,0,0,0,0,0,0,0,0,0,0,0,0,0,0,0,0,0,0,0,0,0,0,0,0,0,0,0,0,0,0,0,0,0,0,0,0,0,0,0,0,0,0,0,0,0,0,0,0,0,0,0,0,0,0,0,0,3.5409,3.541,0,3.5497,3.5498,3.5499,3.5469,3.5468,3.5466,3.5464,3.5552,3.5556,3.556,0,0,0,0,0,0,0,0,0,0,0,0,0,3.5211,3.5215,3.5409,3.541,3.5411,3.5497,3.5498,3.5499,3.547,3.5467,3.5465,3.5463,3.5551,3.5556,3.5561,0,0,0,0,0,0,0,0,0,0,0,0,0,3.5298,3.5217,3.5409,3.5407,3.5407,3.5497,3.5498,3.55,3.547,3.5467,3.5464,3.5462,3.5549,3.5555,3.5561,3.5657,0,0,3.558,3.5583,0,0,0,0,0,0,0,0,3.5293,3.5305,3.5406,3.5407,3.5408,3.5469,3.5461,3.5553,3.5471,3.5446,3.5464,3.546,3.5527,3.5535,3.5558,3.5662,3.5665,3.5581,3.5585,3.5587,3.5589,0,0,0,0,0,0,0,3.5287,3.5301,3.5444,3.5407,3.5409,3.54,3.5409,3.5478,3.5502,3.5448,3.5446,3.5457,3.5527,3.5552,3.5559,3.5667,3.5581,3.5586,3.559,3.5593,3.5851,3.5854,0,0,0,0,0,0,3.5281,3.5297,3.5441,3.5446,3.5342,3.5406,3.5416,3.5453,3.5501,3.5505,3.546,3.5456,3.5542,3.5552,3.5562,3.5677,3.5587,3.5593,3.5597,3.5848,3.5852,3.5855,0,0,0,0,0,0,3.5277,3.5294,3.5437,3.5371,3.5389,3.5413,3.5453,3.5456,3.5481,3.5509,3.5513,3.5481,3.5541,3.5554,3.5634,3.5679,3.5596,3.5602,3.5844,3.5849,3.5854,3.5907,0,0,0,0,0,0,3.5271,3.5293,3.5331,3.5372,3.5392,3.5508,3.5456,3.546,3.5492,3.5487,3.553,3.5535,3.5539,3.5624,3.564,3.5686,3.5607,3.584,3.5847,3.5852,3.5901,3.5912,3.5922,0,0,0,0,0,3.5265,3.5342,3.5333,3.535,3.544,3.5511,3.5523,3.5527,3.5496,3.5533,3.5551,3.5533,3.5672,3.5633,3.565,3.5699,3.5838,3.5845,3.5852,3.5896,3.591,3.5922,0,0,0,0,0,0,3.5306,3.5348,3.5338,3.5432,3.5468,3.5506,3.5554,3.5542,3.5588,3.5582,3.5584,3.5594,3.5676,3.5695,3.5651,3.5793,3.575,3.5761,3.5778,3.5791,3.5802,3.5795,3.5612,0,0,0,0,0,3.5326,3.5381,3.5414,3.5493,3.5512,3.553,3.5561,3.5561,3.5598,3.5614,3.5638,3.5674,3.5725,3.576,3.5809,3.5903,3.5911,3.5945,3.5956,3.5965,3.5974,3.6023,3.6038,3.5878,3.5878,3.5878,0,0,3.5368,3.5397,3.5432,3.5502,3.5531,3.5586,3.5543,3.5604,3.5645,3.5623,3.57,3.5718,3.5759,3.5846,3.5886,3.5865,3.602,3.5974,3.598,3.5985,3.6032,3.6047,3.6061,3.5883,3.5882,3.5882,0,0,3.5472,3.5501,3.5569,3.5598,3.5641,3.5652,3.5668,3.5708,3.5719,3.5797,3.578,3.5828,3.5917,3.5946,3.5973,3.6086,3.6071,3.6102,3.6158,3.6206,3.6219,3.623,3.6269,3.6283,3.6111,3.6111,3.6111,0,3.5519,3.5603,3.5606,3.5668,3.5698,3.568,3.5749,3.5776,3.5833,3.5854,3.583,3.594,3.5966,3.6059,3.6086,3.6109,3.6126,3.6097,3.6217,3.6228,3.6239,3.6276,3.6291,3.6114,3.6114,3.6114,3.6113,0,3.5657,3.5715,3.5765,3.582,3.5856,3.5922,3.5933,3.5969,3.5965,3.5978,3.6055,3.6086,3.614,3.6162,3.6159,3.6254,3.6239,3.6216,3.6173,3.6257,3.6292,3.6307,3.6119,3.6118,3.6117,3.6116,0,0,3.5792,3.5846,3.5864,3.5888,3.5933,3.5978,3.6041,3.6094,3.6124,3.6163,3.6215,3.629,3.6268,3.6298,3.6298,3.634,3.6426,3.6312,3.6313,3.6331,3.653,3.6547,3.6564,3.6416,3.6419,3.6421,3.6526,0,3.5899,3.6011,3.6014,3.6116,3.6168,3.6151,3.6205,3.6238,3.6251,3.6297,3.6311,3.6363,3.6332,3.6349,3.639,3.6407,3.6466,3.6399,3.6463,3.6465,3.6453,3.6582,3.6601,3.6699,3.654,3.6543,3.6544,0,3.604,3.6083,3.619,3.6226,3.6248,3.6297,3.6345,3.6389,3.6425,3.6431,3.6464,3.6457,3.6519,3.6474,3.6559,3.6514,3.654,3.6551,3.6555,3.6561,3.651,3.6591,3.673,3.6745,3.6566,3.6564,3.6563,0,3.6126,3.6211,3.6285,3.6306,3.635,3.6385,3.6404,3.6438,3.6468,3.651,3.6529,3.6577,3.6603,3.664,3.6645,3.6612,3.6731,3.6686,3.6736,3.6736,3.6762,3.6761,3.6908,3.678,3.678,3.678,3.6779,0,3.6245,3.6311,3.6324,3.637,3.6442,3.6444,3.6516,3.6532,3.6562,3.6609,3.6597,3.6641,3.6646,3.6692,3.6696,3.6765,3.6777,3.6783,3.6783,3.6784,3.6783,3.6801,3.6794,3.6784,3.6783,3.6782,3.6781,0,3.6354,3.6365,3.6445,3.6479,3.6489,3.6541,3.657,3.6613,3.6624,3.6684,3.6698,3.6715,3.6768,3.6777,3.6839,3.6842,3.6924,3.6918,3.6912,3.6911,3.6961,3.6956,3.7125,3.7146,3.7005,3.7006,3.7008,0,3.6429,3.6479,3.6519,3.655,3.6571,3.6621,3.6653,3.6656,3.6689,3.6732,3.6769,3.6821,3.6862,3.6947,3.6965,3.7011,3.7006,3.7061,3.7013,3.7011,3.7005,3.7002,3.7006,3.7071,3.7072,3.7073,3.7074,0,3.6561,3.6564,3.661,3.6657,3.6695,3.6732,3.6767,3.6793,3.6801,3.6838,3.6892,3.6924,3.6987,3.7038,3.7084,3.7102,3.709,3.7089,3.7103,3.7105,3.7099,3.7102,3.6937,3.7086,3.7085,3.7084,3.7083,3.7083,3.6655,3.6698,3.6732,3.6782,3.6809,3.6842,3.6883,3.6899,3.6944,3.6996,3.6995,3.7054,3.7086,3.7147,3.7168,3.7213,3.7195,3.7216,3.7221,3.7226,3.723,3.7092,3.7222,3.7222,3.7221,3.7221,3.7221,0,3.6785,3.6806,3.6853,3.6902,3.6941,3.6926,3.6963,3.6997,3.7049,3.7081,3.7121,3.7182,3.7231,3.7251,3.7299,3.7331,3.7326,3.7343,3.734,3.7344,3.7244,3.7227,3.7346,3.7346,3.7346,3.7346,3.7346,3.7346,3.6858,3.6929,3.6935,3.7019,3.7039,3.7097,3.7119,3.7149,3.7174,3.7242,3.7283,3.7296,3.7322,3.7371,3.7414,3.7419,3.7436,3.7456,3.7458,3.7364,3.7352,3.734,3.7323,3.746,3.746,3.7554,3.7555,3.7556]}]]